Temperature
17 16 16 16 16 16 16 16 16 15 15 15 15 15 15 15 15 15 15 15 14 14 14 14 14 14 14 14 14 13 13 13 13 13 13 13 13 13 12 12 12 12 12
17 17 16 16 16 16 16 16 16 15 15 15 15 15 15 15 15 15 15 15 15 14 14 14 14 14 14 14 14 14 13 13 13 13 13 12 12 12 12 12 12 12 12
17 17 16 16 16 16 16 16 16 16 15 15 15 15 15 15 15 15 15 15 15 14 14 14 14 14 14 14 14 13 13 13 13 13 13 12 12 12 12 12 12 12 12
17 17 16 16 16 16 16 16 16 16 16 15 15 15 15 15 15 15 15 15 14 14 14 14 14 14 14 14 13 13 13 13 13 13 12 12 12 12 12 12 12 12 12
17 17 17 16 16 16 16 16 16 16 16 15 15 15 15 15 15 15 15 14 14 14 14 14 14 14 14 13 13 13 13 13 13 12 12 12 12 12 12 12 12 12 11
17 17 17 16 16 16 16 16 16 16 16 15 15 15 15 15 15 15 15 14 14 14 14 14 13 13 13 13 13 13 13 12 12 12 12 12 12 12 12 11 11 11 11
17 17 17 16 16 16 16 16 16 16 16 15 15 15 15 15 15 15 14 14 14 14 14 14 13 13 13 13 13 13 13 12 12 12 12 12 12 11 11 11 11 11 11
18 17 17 17 17 16 16 16 16 16 15 15 15 15 15 15 15 15 14 14 14 14 14 14 13 13 13 13 13 13 12 12 12 12 11 11 11 11 11 11 11 10 10
18 17 17 17 17 16 16 16 16 15 15 15 15 15 15 15 15 14 14 14 14 14 13 13 13 13 13 13 12 12 12 12 12 12 11 11 11 11 11 10 10 10 10
18 17 17 17 17 16 16 16 15 15 15 15 15 15 15 15 14 14 14 14 14 14 13 13 13 13 12 12 12 12 12 12 12 11 11 11 11 10 10 10 10 9 9
18 17 17 17 16 16 16 16 15 15 15 15 15 15 15 14 14 14 14 14 13 13 13 13 13 12 12 12 12 12 12 11 11 11 11 11 11 10 10 10 9 9 9
17 17 17 17 16 16 16 16 15 15 15 15 15 14 14 14 14 14 13 13 13 13 13 12 12 12 12 12 11 11 11 11 11 11 11 11 10 10 10 9 9 9 9
17 17 17 16 16 16 16 15 15 15 15 14 14 14 14 14 13 13 13 13 13 12 12 12 12 11 11 11 11 11 11 11 10 10 10 10 10 10 9 9 9 9 9
17 16 16 16 16 15 15 15 15 14 14 14 14 14 13 13 13 13 12 12 12 12 12 11 11 11 11 11 11 10 10 10 10 10 10 9 9 9 9 9 8 8 8
16 16 16 16 15 15 15 15 14 14 14 14 13 13 13 13 12 12 12 12 12 11 11 11 11 11 11 10 10 10 10 9 9 9 9 9 9 8 8 8 8 7 7
16 16 16 15 15 15 14 14 14 13 13 13 13 12 12 12 12 11 11 11 11 11 11 11 10 10 10 10 10 9 9 9 9 8 8 8 8 8 7 7 7 7 6
16 16 15 15 15 14 14 14 13 13 13 12 12 12 12 12 11 11 11 10 10 10 10 10 10 9 9 9 9 8 8 8 8 8 7 7 7 7 6 6 6 6 5
15 15 15 15 14 14 13 13 13 13 12 12 12 12 11 11 11 10 10 10 10 10 9 9 9 8 8 8 8 8 7 7 7 7 7 6 6 6 6 5 5 5 5
15 15 14 14 14 13 13 13 12 12 12 12 11 11 11 10 10 10 10 10 9 9 9 8 8 8 8 7 7 7 7 6 6 6 6 6 5 5 5 4 4 4 4
14 14 14 13 13 13 12 12 12 12 11 11 11 10 10 10 10 9 9 9 9 8 8 8 7 7 7 7 6 6 6 6 5 5 5 5 4 4 4 3 3 3 3
14 13 13 13 13 12 12 12 11 11 11 10 10 10 9 9 9 9 9 8 8 8 7 7 6 6 6 6 5 5 5 5 4 4 4 4 3 3 3 3 2 2 2
13 13 13 12 12 11 11 11 10 10 10 10 9 9 9 9 8 8 8 7 7 7 6 6 6 5 5 5 4 4 4 4 3 3 3 3 3 3 2 2 2 2 2
13 12 12 12 11 11 11 10 10 10 9 9 9 8 8 8 7 7 7 6 6 6 6 5 5 5 4 4 4 3 3 3 2 2 2 2 2 2 2 1 1 1 1
12 12 12 11 11 10 10 10 9 9 9 8 8 8 7 7 7 6 6 6 5 5 5 5 4 4 4 3 3 3 2 2 2 1 1 1 1 1 1 1 1 0 0
11 11 11 11 10 10 9 9 9 8 8 8 7 7 7 6 6 6 5 5 5 4 4 4 3 3 3 2 2 2 1 1 1 1 1 0 0 0 0 0 -0 -0 -0
11 10 10 10 9 9 9 8 8 8 7 7 7 6 6 6 5 5 4 4 4 3 3 3 3 2 2 2 1 1 1 1 0 0 0 -0 -0 -0 -0 -1 -1 -1 -1
Wind_Speed
6 5 5 5 4 4 4 4 3 3 3 3 3 3 3 3 3 3 3 3 3 3 3 3 3 2 2 2 2 2 2 2 2 1 2 2 3 3 5 6 7 6 7
6 6 6 5 5 4 4 4 4 4 3 3 3 3 3 3 3 3 3 3 3 2 2 2 2 2 3 2 2 2 2 2 2 1 1 2 2 3 3 4 5 5 6
6 6 5 5 5 5 4 4 4 4 3 3 3 3 3 3 2 2 2 2 2 2 2 2 1 2 2 1 2 2 2 2 2 2 0 1 1 2 2 3 4 4 5
7 6 6 6 6 5 4 4 4 4 4 4 3 3 3 3 3 2 3 2 2 1 1 1 1 2 2 2 2 2 2 3 2 2 1 1 1 2 1 2 3 3 3
7 7 7 6 5 4 4 4 4 4 4 4 3 3 2 3 3 3 3 3 2 1 0 0 0 1 2 3 2 3 3 2 2 1 1 1 1 1 1 1 1 3 3
8 7 6 5 5 5 5 4 4 4 4 4 3 3 3 2 4 6 5 3 3 2 1 1 1 0 1 1 2 4 5 4 3 2 1 1 2 2 1 1 1 1 3
8 7 6 6 6 6 5 5 5 4 4 4 3 3 3 3 4 6 6 5 3 3 2 1 1 0 1 1 1 1 1 3 4 4 3 3 3 3 2 1 2 2 3
8 7 7 7 6 6 6 6 5 4 4 4 4 4 3 3 4 5 6 4 3 2 3 3 2 2 1 2 1 0 1 1 2 2 3 4 3 2 3 2 3 2 3
8 8 8 8 7 7 7 6 5 4 4 3 3 4 3 3 3 5 5 3 2 2 2 2 3 3 2 3 2 1 2 3 3 3 4 4 4 3 3 2 1 0 3
8 8 7 8 8 8 7 6 4 4 4 4 2 2 3 3 3 5 6 3 2 2 1 1 3 3 3 3 3 3 3 4 2 2 2 3 3 3 4 4 3 2 2
6 6 6 7 7 7 6 5 5 5 4 3 2 1 1 2 3 4 6 4 3 2 2 2 2 3 3 3 3 3 5 3 2 2 2 3 3 3 3 5 5 4 4
6 6 6 6 5 5 6 5 5 5 5 3 2 1 0 1 1 3 4 5 5 3 3 2 2 2 2 2 2 3 4 2 0 1 2 3 3 4 4 5 7 8 9
6 6 5 5 4 5 6 6 4 4 4 3 3 2 1 1 1 2 2 3 4 3 2 2 1 0 1 1 2 2 1 0 1 1 3 4 3 4 3 3 4 6 8
6 5 5 6 5 4 4 5 5 4 4 3 3 2 1 0 1 0 1 1 1 1 0 1 2 3 2 2 2 2 1 1 1 2 3 3 3 2 2 2 2 2 3
6 5 5 5 6 5 4 3 4 3 5 5 4 4 3 2 2 3 3 1 1 2 2 2 2 2 2 2 2 2 2 2 2 2 2 3 3 3 3 2 2 2 3
6 5 4 4 4 5 5 4 4 4 4 5 5 5 3 3 3 4 4 3 4 5 4 2 1 1 1 2 2 2 2 2 2 2 2 3 3 4 4 3 2 3 4
6 5 4 4 5 4 4 5 3 3 5 4 4 4 4 5 5 4 4 5 5 6 4 2 1 1 1 2 2 2 2 3 2 2 3 3 4 4 4 5 4 4 5
6 6 5 4 4 4 4 4 4 4 3 1 2 3 4 4 5 4 5 6 4 3 2 1 0 1 1 1 2 2 2 3 2 2 3 3 4 4 5 5 5 6 6
5 4 4 4 4 4 4 4 4 4 3 2 2 3 4 4 6 5 5 3 2 1 0 0 1 1 1 2 2 2 2 3 3 3 3 4 4 4 5 5 6 8 7
4 7 7 5 4 4 4 4 4 4 4 3 2 1 2 3 3 2 2 2 1 0 0 0 1 1 1 2 2 2 2 3 3 3 4 4 4 4 5 6 6 7 7
4 5 8 6 4 4 4 4 4 4 4 3 2 2 4 3 2 2 1 1 1 0 0 0 1 1 2 2 2 2 3 3 3 4 4 4 5 5 5 6 6 7 7
5 5 5 5 4 4 4 4 4 4 4 3 2 2 4 3 2 1 1 1 0 0 0 0 0 1 2 2 2 2 3 4 4 4 5 5 5 6 6 6 7 7 8
6 6 5 5 5 6 5 4 4 4 3 3 3 2 2 2 1 1 1 1 1 1 2 1 1 2 4 4 4 3 3 4 5 6 6 6 6 6 6 7 8 9 9
6 6 6 5 5 5 4 4 3 3 3 3 3 2 2 1 1 1 1 1 1 2 2 3 3 3 4 6 6 7 7 8 9 8 7 7 7 7 7 7 8 10 10
5 5 5 5 5 4 4 4 3 3 3 3 2 2 2 2 2 1 1 1 1 2 2 3 4 4 5 6 7 8 10 11 12 11 10 7 7 8 8 9 9 10 10
5 5 5 4 4 4 4 4 3 3 3 2 2 2 2 2 1 1 1 1 1 2 3 3 4 5 6 7 8 10 11 12 13 13 11 8 7 8 8 8 10 10 11
Wind_Direction
175 175 168 172 169 162 170 182 170 155 147 143 134 120 111 101 94 97 96 98 93 73 67 86 77 81 85 77 84 88 85 107 135 305 322 339 357 3 7 16 16 19 16
175 170 174 167 161 168 185 189 166 162 159 154 138 132 126 116 110 119 119 114 116 109 92 89 74 85 80 75 86 90 95 97 127 152 332 349 352 2 4 4 3 5 3
167 167 169 169 171 184 192 187 171 164 158 149 145 153 154 144 138 141 139 133 133 141 138 130 127 111 98 91 98 101 99 91 89 125 152 337 337 0 8 2 4 356 352
166 169 177 185 185 190 188 181 178 168 165 168 168 172 168 155 155 155 146 141 137 133 136 152 161 164 176 152 130 134 120 104 91 97 104 342 323 335 11 353 343 340 330
169 177 190 186 174 171 173 176 170 165 172 167 160 165 158 161 175 169 165 159 155 146 122 43 208 182 187 170 157 162 141 124 113 112 116 353 315 317 296 287 293 317 303
174 185 186 172 167 171 175 169 160 161 158 153 169 172 177 194 184 175 162 164 168 169 191 270 305 307 220 190 175 161 156 155 165 158 188 228 260 244 234 228 234 340 308
178 182 179 174 176 180 174 164 168 172 164 162 178 176 197 219 196 182 173 158 169 184 198 219 256 276 101 95 80 102 171 184 175 169 191 224 235 227 189 215 223 228 252
178 182 182 176 178 173 168 175 180 168 167 176 186 191 203 225 198 184 175 155 168 195 206 207 211 238 185 156 141 70 302 288 238 196 212 231 233 209 183 202 218 251 279
183 187 186 179 175 172 178 185 181 168 173 179 182 184 194 233 202 180 160 155 179 218 220 192 189 215 226 164 151 205 295 301 286 251 248 260 271 253 186 122 104 329 299
193 190 182 176 177 181 186 183 172 167 177 170 172 182 194 222 202 182 164 159 183 222 246 237 217 216 225 184 178 193 248 271 284 323 312 306 298 275 224 200 196 210 260
180 170 170 176 180 180 174 167 160 156 148 151 159 176 194 220 206 184 169 169 188 199 221 250 255 235 233 215 186 203 242 254 256 259 283 300 308 294 270 245 224 209 222
155 156 162 165 169 164 157 155 150 148 146 152 147 143 288 274 198 194 184 186 178 182 216 235 240 240 243 246 228 253 264 287 267 281 290 291 287 284 283 271 256 247 246
140 146 150 145 146 147 150 149 144 148 151 159 156 180 259 306 283 211 195 189 185 189 210 205 193 75 347 335 320 311 308 245 217 267 276 277 275 281 295 299 290 279 276
139 144 142 139 134 130 138 147 150 158 163 167 166 181 207 257 289 278 211 161 160 166 142 79 72 62 53 19 4 355 352 265 239 258 282 286 302 306 295 286 286 299 299
136 137 138 139 141 134 127 136 152 164 171 169 182 179 172 201 240 182 156 153 154 144 110 70 53 38 20 5 355 343 342 343 313 294 291 300 306 310 305 301 287 292 282
136 140 143 141 140 138 135 107 71 94 112 130 139 145 153 148 121 124 129 123 117 118 103 85 62 33 356 340 337 334 332 320 305 299 302 303 305 307 309 311 296 289 293
145 146 141 141 143 142 145 146 128 70 74 93 117 132 129 119 118 117 117 108 98 107 93 86 64 340 315 316 311 306 307 307 308 311 311 311 313 312 310 309 307 301 294
133 136 140 145 146 146 152 151 146 138 124 73 55 87 109 112 105 106 112 99 76 75 83 94 307 307 309 307 307 306 311 323 327 322 319 317 315 314 314 313 309 303 300
130 133 134 132 134 138 140 137 131 130 129 117 81 59 71 92 88 91 105 99 117 118 104 328 308 309 311 311 315 317 320 322 324 322 319 316 315 312 309 307 305 304 302
123 128 130 129 127 124 125 128 128 127 124 120 118 108 88 83 83 83 84 90 103 96 28 336 324 320 315 315 322 327 332 330 328 323 317 313 309 307 305 305 304 303 300
123 128 127 122 125 129 128 130 132 131 131 127 117 106 119 115 118 116 105 91 98 98 332 339 336 329 320 321 326 328 325 321 318 314 312 309 307 303 299 296 296 297 299
123 122 124 127 126 126 128 129 129 130 129 123 98 89 103 95 103 107 94 67 61 240 274 193 317 317 315 311 314 324 324 321 319 317 313 310 309 306 302 298 297 297 297
124 122 119 116 119 121 120 120 122 124 123 121 120 112 105 102 102 96 75 45 36 14 12 18 358 341 343 340 336 324 312 313 313 313 311 310 308 306 305 303 302 303 302
122 124 125 123 119 119 121 118 117 119 118 118 120 121 121 119 101 72 49 30 25 19 18 10 354 342 341 341 340 334 326 322 320 315 310 305 306 304 303 302 302 302 301
122 123 125 127 126 125 123 120 118 117 114 114 116 111 109 101 90 71 46 33 17 8 355 348 339 335 333 332 332 330 327 324 321 318 313 309 302 302 302 300 300 302 302
121 120 121 121 122 125 128 128 125 120 115 108 106 103 101 95 85 72 26 27 3 336 328 327 325 325 325 325 326 327 325 322 321 317 312 308 300 300 301 300 301 300 300
Height
1559 1561 1563 1564 1566 1567 1568 1569 1570 1570 1571 1571 1572 1572 1572 1572 1572 1572 1572 1572 1571 1571 1571 1571 1571 1571 1571 1570 1570 1570 1569 1569 1568 1567 1567 1565 1564 1563 1562 1562 1561 1561 1560
1557 1559 1561 1563 1564 1566 1567 1568 1569 1570 1571 1571 1572 1572 1572 1572 1572 1572 1572 1572 1571 1571 1571 1571 1571 1571 1570 1570 1570 1569 1569 1568 1568 1567 1566 1565 1564 1563 1562 1562 1561 1560 1560
1556 1558 1560 1561 1563 1564 1566 1567 1569 1570 1570 1571 1571 1572 1572 1572 1572 1572 1572 1572 1571 1571 1571 1571 1571 1570 1570 1570 1569 1569 1568 1568 1567 1567 1566 1565 1564 1563 1562 1561 1561 1560 1559
1554 1556 1558 1559 1561 1563 1565 1566 1567 1569 1570 1570 1571 1571 1571 1572 1572 1572 1572 1571 1571 1571 1571 1571 1570 1570 1570 1569 1569 1569 1568 1568 1567 1566 1565 1564 1563 1562 1562 1560 1559 1559 1558
1552 1554 1556 1558 1559 1561 1563 1565 1566 1567 1568 1569 1570 1570 1570 1571 1571 1571 1571 1571 1571 1571 1571 1570 1570 1570 1569 1569 1569 1568 1568 1567 1566 1565 1564 1563 1562 1561 1560 1559 1558 1557 1556
1549 1551 1553 1555 1557 1559 1561 1563 1564 1566 1567 1568 1568 1569 1569 1570 1570 1570 1570 1570 1570 1570 1570 1570 1570 1569 1569 1568 1568 1567 1567 1566 1565 1564 1563 1562 1561 1560 1559 1558 1557 1555 1554
1547 1549 1551 1553 1555 1557 1559 1560 1562 1563 1565 1566 1567 1567 1568 1568 1569 1569 1569 1569 1569 1569 1569 1569 1569 1568 1568 1567 1567 1566 1566 1565 1564 1564 1562 1561 1560 1559 1558 1556 1555 1553 1552
1544 1546 1549 1551 1553 1555 1556 1558 1560 1561 1563 1564 1565 1566 1566 1567 1567 1568 1568 1568 1568 1568 1568 1568 1567 1567 1567 1566 1566 1565 1564 1563 1563 1561 1561 1560 1559 1557 1556 1555 1553 1551 1550
1541 1543 1546 1548 1550 1552 1554 1555 1557 1559 1560 1561 1562 1563 1564 1565 1565 1566 1566 1566 1566 1566 1566 1566 1566 1565 1565 1565 1564 1563 1562 1562 1561 1560 1559 1557 1556 1555 1554 1552 1550 1548 1545
1538 1541 1543 1545 1547 1549 1551 1553 1554 1556 1558 1559 1560 1561 1562 1562 1563 1563 1564 1563 1563 1563 1563 1563 1563 1563 1563 1562 1561 1560 1559 1559 1558 1557 1556 1555 1553 1552 1550 1549 1547 1545 1543
1536 1538 1541 1543 1545 1547 1548 1550 1551 1553 1555 1556 1557 1558 1559 1560 1560 1561 1561 1561 1560 1561 1560 1561 1561 1560 1560 1559 1558 1557 1557 1556 1555 1554 1552 1551 1550 1549 1547 1545 1544 1542 1540
1534 1536 1538 1540 1542 1544 1545 1547 1548 1550 1551 1553 1554 1555 1556 1557 1557 1558 1558 1558 1558 1558 1557 1558 1557 1557 1557 1556 1555 1554 1554 1553 1551 1550 1549 1547 1546 1545 1543 1541 1540 1538 1536
1531 1533 1535 1538 1539 1541 1542 1544 1545 1547 1548 1549 1551 1552 1553 1554 1554 1554 1555 1555 1554 1554 1554 1554 1554 1554 1553 1553 1552 1551 1550 1549 1548 1546 1545 1543 1542 1541 1539 1537 1535 1533 1531
1529 1531 1533 1535 1537 1539 1540 1542 1543 1544 1546 1547 1548 1549 1550 1551 1551 1552 1552 1552 1552 1552 1552 1551 1551 1551 1550 1550 1549 1548 1547 1545 1544 1543 1541 1540 1538 1536 1534 1532 1530 1528 1525
1528 1530 1532 1533 1535 1536 1538 1540 1541 1542 1544 1545 1546 1547 1547 1548 1549 1549 1549 1549 1549 1549 1549 1549 1548 1548 1547 1546 1545 1544 1543 1542 1541 1539 1537 1535 1533 1531 1529 1527 1525 1523 1520
1526 1528 1530 1531 1533 1534 1536 1538 1539 1540 1542 1543 1544 1544 1545 1546 1546 1547 1547 1547 1547 1547 1546 1545 1545 1545 1544 1543 1542 1541 1540 1538 1537 1535 1533 1531 1529 1527 1525 1523 1521 1518 1516
1525 1526 1528 1530 1531 1532 1534 1536 1537 1538 1539 1540 1541 1542 1543 1543 1544 1544 1544 1544 1544 1544 1543 1542 1542 1542 1541 1540 1539 1538 1536 1535 1533 1532 1530 1528 1525 1523 1521 1518 1516 1514 1511
1523 1525 1526 1527 1529 1530 1532 1533 1534 1536 1537 1538 1539 1540 1540 1541 1541 1541 1541 1541 1541 1541 1540 1540 1539 1539 1538 1537 1535 1534 1533 1531 1529 1528 1526 1523 1521 1519 1516 1514 1512 1509 1506
1521 1523 1524 1525 1527 1528 1530 1531 1532 1534 1535 1536 1537 1538 1538 1539 1539 1539 1539 1538 1538 1538 1538 1537 1536 1536 1535 1533 1532 1531 1529 1527 1525 1523 1521 1519 1517 1514 1512 1510 1507 1504 1502
1520 1521 1522 1524 1525 1526 1527 1528 1530 1531 1533 1534 1534 1535 1536 1536 1536 1536 1536 1536 1536 1535 1535 1534 1533 1532 1531 1530 1528 1527 1525 1523 1521 1519 1517 1515 1512 1510 1507 1505 1502 1499 1496
1518 1519 1521 1522 1523 1524 1525 1527 1528 1529 1530 1531 1532 1533 1534 1534 1534 1534 1534 1533 1533 1532 1532 1531 1530 1529 1527 1526 1524 1522 1521 1518 1516 1514 1512 1510 1507 1505 1502 1499 1497 1494 1491
1517 1518 1519 1520 1521 1523 1524 1525 1527 1528 1528 1530 1531 1531 1532 1532 1532 1532 1531 1530 1530 1530 1529 1527 1526 1525 1523 1522 1520 1518 1516 1513 1512 1509 1507 1504 1502 1499 1497 1494 1491 1488 1485
1516 1517 1518 1519 1520 1522 1523 1524 1525 1526 1527 1528 1529 1529 1529 1530 1530 1529 1528 1528 1527 1526 1525 1524 1522 1521 1519 1517 1515 1513 1511 1509 1507 1504 1502 1499 1496 1494 1491 1488 1485 1482 1479
1514 1515 1516 1518 1519 1520 1521 1522 1523 1524 1525 1526 1526 1527 1527 1527 1527 1526 1526 1525 1524 1522 1521 1520 1518 1517 1515 1513 1511 1509 1506 1504 1502 1499 1497 1493 1491 1488 1485 1482 1479 1476 1472
1512 1513 1514 1516 1517 1518 1519 1520 1521 1522 1523 1523 1524 1524 1524 1524 1523 1523 1522 1521 1520 1519 1517 1516 1514 1512 1510 1508 1506 1503 1501 1499 1497 1494 1491 1488 1485 1482 1479 1476 1472 1469 1466
1510 1511 1513 1514 1515 1516 1517 1518 1519 1519 1520 1521 1521 1521 1521 1520 1520 1519 1518 1517 1516 1515 1513 1512 1510 1508 1506 1503 1501 1498 1496 1494 1491 1488 1485 1482 1479 1476 1473 1469 1466 1463 1460